Location: Eboldshausen
(51.7766°N, 10.0050°E)
Time: 05:28:43
(UTC+00:00)

Cosmos 468 Rocket - Pass Details

Date: 15 November 2025
Orbit: 740 x 774 km, 74.0° (Epoch: 10 December)

Event Time Altitude Azimuth Distance (km) Brightness Sun altitude
Rises 17:59:07 0° 332° (NNW) 3,242 7.6 -22.9°
Reaches altitude 10° 18:01:32 10° 329° (NNW) 2,306 6.8 -23.3°
Maximum altitude 18:06:40 60° 251° (WSW) 870 4.5 -24.1°
Drops below altitude 10° 18:11:43 10° 173° (S) 2,268 6.3 -24.9°
Enters shadow 18:12:06 - 172° (S) 2,417 6.5 -24.9°
